Jordan, MT

5:51 PM MDT on May 26, 2017 (GMT -0600)
Jordan

Weather History for KJDN - July, 2013

Change the Weather History Date:

Thursday, July 18, 2013

  Actual Average Record
Temperature  
Mean Temperature 75 °F 71 °F  
Max Temperature 91 °F 86 °F 109 °F (1936)
Min Temperature 59 °F 55 °F 42 °F (1952)
Degree Days  
Heating Degree Days 0 1  
Month to date heating degree days 1 19  
Since 1 June heating degree days 96 144  
Since 1 July heating degree days 1 19  
Cooling Degree Days 10 6  
Month to date cooling degree days 138 89  
Year to date cooling degree days 198 143  
Since 1 June cooling degree days 186 137  
Growing Degree Days 24 (Base 50)    
Moisture  
Dew Point 52 °F    
Average Humidity 57    
Maximum Humidity 93    
Minimum Humidity 21    
Precipitation  
Precipitation 0.00 in 0.05 in 0.81 in (1987)
Month to date precipitation 0.93 1.32  
Year to date precipitation 11.95 8.18  
Snow  
Snow 0.00 in - - ()
Month to date snowfall 0.0  
Since 1 June snowfall 0.0  
Since 1 July snowfall 0.0  
Snow Depth 0.00 in    
Sea Level Pressure  
Sea Level Pressure 29.97 in    
Wind  
Wind Speed 10 mph (NW)    
Max Wind Speed 25 mph    
Max Gust Speed 35 mph    
T = Trace of Precipitation, MM = Missing Value Source: NWS Daily Summary

Daily Weather History Graph

Daily Weather History Graph

Search for Another Location

Airport or City:

Trip Planner

Search our weather history database for the weather conditions in past years. The results will help you decide how hot, cold, wet, or windy it might be!

Date:

Astronomy

Jul. 18, 2013 Rise Set
Actual Time 5:30 AM MDT 8:57 PM MDT
Civil Twilight 4:52 AM MDT 9:35 PM MDT
Nautical Twilight 4:01 AM MDT 10:25 PM MDT
Astronomical Twilight 2:55 AM MDT 11:30 PM MDT
Moon 4:55 PM MDT (7/18) 1:26 AM MDT (7/18)
Length of Visible Light 16h 43m
Length of Day
15h 27m
Waxing Gibbous, 78% of the Moon is Illuminated
Jul 18
Waxing Gibbous
Jul 22
Full
Jul 29
Last Quarter
Aug 6
New
Aug 14
First Quarter

Hourly Weather History & Observations

Time (MDT) Temp. Heat Index Dew Point Humidity Pressure Visibility Wind Dir Wind Speed Gust Speed Precip Events Conditions
12:48 AM 66.9 °F - 61.0 °F 81% 29.98 in - ESE 8.1 mph - N/A   Unknown
1:48 AM 64.9 °F - 61.0 °F 87% 29.95 in - SSE 5.8 mph - N/A   Unknown
2:48 AM 64.9 °F - 61.0 °F 87% 29.91 in - Calm Calm - N/A   Unknown
3:48 AM 64.9 °F - 62.1 °F 90% 29.95 in - NW 11.5 mph - N/A   Unknown
4:48 AM 64.0 °F - 61.0 °F 90% 29.96 in - WNW 3.5 mph - N/A   Unknown
5:48 AM 59.0 °F - 57.0 °F 93% 29.97 in - SW 3.5 mph - N/A   Unknown
6:48 AM 64.0 °F - 60.1 °F 87% 29.96 in - Calm Calm - N/A   Unknown
7:48 AM 70.0 °F - 59.0 °F 68% 29.97 in - West 8.1 mph - N/A   Unknown
8:48 AM 75.9 °F - 57.9 °F 54% 29.98 in - WNW 11.5 mph - N/A   Unknown
9:48 AM 82.0 °F 82.0 °F 57.9 °F 44% 29.98 in - NW 12.7 mph - N/A   Unknown
10:48 AM 84.0 °F - 51.1 °F 32% 29.98 in - NW 20.7 mph 25.3 mph N/A   Unknown
11:48 AM 86.0 °F - 48.9 °F 28% 29.97 in - NW 18.4 mph 24.2 mph N/A   Unknown
12:48 PM 87.1 °F 84.9 °F 53.1 °F 31% 29.97 in - NW 11.5 mph 20.7 mph N/A   Unknown
1:13 PM 87.8 °F - 50.0 °F 27% 30.01 in - WNW 15.0 mph 25.3 mph N/A   Unknown
1:48 PM 88.0 °F - 52.0 °F 29% 29.96 in - WNW 18.4 mph 24.2 mph N/A   Unknown
2:48 PM 90.0 °F - 48.0 °F 24% 29.95 in - WNW 17.3 mph 27.6 mph N/A   Unknown
3:48 PM 90.0 °F - 46.0 °F 22% 29.94 in - WNW 15.0 mph 28.8 mph N/A   Unknown
4:48 PM 89.1 °F - 44.1 °F 21% 29.94 in - NW 15.0 mph 20.7 mph N/A   Unknown
5:48 PM 88.0 °F - 42.1 °F 20% 29.95 in - NNW 16.1 mph 23.0 mph N/A   Unknown
6:48 PM 87.1 °F - 43.0 °F 21% 29.94 in - NNW 18.4 mph 26.5 mph N/A   Unknown
7:48 PM 82.9 °F - 44.1 °F 25% 29.96 in - NNW 15.0 mph 27.6 mph N/A   Unknown
8:48 PM 77.0 °F - 43.0 °F 30% 29.98 in - NNW 10.4 mph - N/A   Unknown
9:48 PM 69.1 °F - 44.1 °F 40% 30.00 in - West 3.5 mph - N/A   Unknown
10:48 PM 64.9 °F - 45.0 °F 48% 30.02 in - NW 6.9 mph - N/A   Unknown
11:48 PM 62.1 °F - 45.0 °F 53% 30.04 in - WNW 3.5 mph - N/A   Unknown